This is the latest recevied weather packets stored in our database for station/object SP9MUF-14. If no packets are shown the sender has not sent any weather packets the latest 10 day(s).
| Time | Temp. | Humidity | Pressure | Rain* | Wind** | Luminosity | Snow |
|---|---|---|---|---|---|---|---|
| 1787763384 | 21.67° C | 54% | 1019.6 hPa | 0 mm | - | 19 W/m² | - |
| 1787763082 | 21.67° C | 54% | 1019.6 hPa | 0 mm | - | 23 W/m² | - |
| 1787762779 | 21.67° C | 53% | 1019.6 hPa | 0 mm | - | 25 W/m² | - |
| 1787762477 | 21.67° C | 54% | 1019.6 hPa | 0 mm | - | 27 W/m² | - |
| 1787762175 | 21.67° C | 53% | 1019.5 hPa | 0 mm | - | 33 W/m² | - |
| 1787761872 | 21.67° C | 53% | 1019.5 hPa | 0 mm | - | 40 W/m² | - |
| 1787761570 | 21.67° C | 52% | 1019.4 hPa | 0 mm | - | 37 W/m² | - |
| 1787761268 | 21.67° C | 51% | 1019.4 hPa | 0 mm | - | 36 W/m² | - |
| 1787760966 | 22.78° C | 52% | 1019.3 hPa | 0 mm | - | 40 W/m² | - |
| 1787760663 | 22.78° C | 51% | 1019.3 hPa | 0 mm | - | 48 W/m² | - |
| 1787760059 | 22.78° C | 50% | 1019.2 hPa | 0 mm | - | 71 W/m² | - |
| 1787759454 | 22.78° C | 50% | 1019.2 hPa | 0 mm | - | 86 W/m² | - |
| 1787759152 | 22.78° C | 50% | 1019.3 hPa | 0 mm | - | 112 W/m² | - |
| 1787758850 | 23.89° C | 50% | 1019.2 hPa | 0 mm | - | 107 W/m² | - |
| 1787758548 | 23.89° C | 50% | 1019.2 hPa | 0 mm | - | 118 W/m² | - |
| 1787757943 | 22.78° C | 50% | 1019.4 hPa | 0 mm | - | 132 W/m² | - |
| 1787757338 | 22.78° C | 49% | 1019.4 hPa | 0 mm | - | 116 W/m² | - |
| 1787757036 | 22.78° C | 50% | 1019.4 hPa | 0 mm | - | 175 W/m² | - |
| 1787756734 | 23.89° C | 48% | 1019.4 hPa | 0 mm | - | 97 W/m² | - |
| 1787756432 | 22.78° C | 50% | 1019.4 hPa | 0 mm | - | 105 W/m² | - |
| 1787756129 | 23.89° C | 50% | 1019.5 hPa | 0 mm | - | 94 W/m² | - |
| 1787755827 | 23.89° C | 47% | 1019.5 hPa | 0 mm | - | 179 W/m² | - |
| 1787754920 | 25° C | 44% | 1019.3 hPa | 0 mm | - | 272 W/m² | - |
| 1787754618 | 23.89° C | 43% | 1019.4 hPa | 0 mm | - | 187 W/m² | - |
| 1787754014 | 22.78° C | 48% | 1019.4 hPa | 0 mm | - | 189 W/m² | - |
* Rain latest hour (hover to see other rain measurements)
** Current wind speed in m/s (hover to see current wind gust speed)